THOR ABLESTAR DEB, 147

Orbit data source: Space-Track

THOR ABLESTAR DEB, 147 is space debris in LEO originally from a launch on Thu, 29 Jun 1961 UTC launched from the Air Force Eastern Test Range (AFETR). Debris objects in space refer to the collection of defunct objects orbiting the Earth. Examples of debris include non-operational satellites, rocket bodies, and fragments generated from explosions, collisions, or faulty payload assembly.

Loading next visibility...
Identifier
147, 1961-015AH
Orbit
LEO
Country
Flag of USUS
Related business
Manufacturer
Unknown
Mission
Spacecraft
Bus & Motor
Unknown
Mass
Unknown
Launch date (UTC)
1961-06-29 (64 years ago)
Launch vehicle
Unknown
Launch site
Air Force Eastern Test Range (AFETR)
Object type
Payload
Rocket body
Debris
Shape & HBR
Unknown shape, 0.2 m
Radar Cross Section
Medium (>0.1 m² and <1 m²)

Expand to show TLE details & history
Last TLE update: 1 day ago

TLE from 1 day ago
0 THOR ABLESTAR DEB
1 00147U 61015AH  25295.30101564  .00001732  00000-0  78017-3 0  9997
2 00147  66.6169 258.8949 0059506 246.5826 112.9004 14.23702427300597
Epoch: 2025-10-22T07:13Z
TLE epoch observation values (Epoch: 2025-10-22T07:13:27.751Z)
Latitude
-0.00002°
Longitude
119.55267°
Altitude
831.821 km
Speed
7.429 km/s
True Right ascension
17h 15m 34s
True Declination
0° 00' 00"
Sunlit
Object was in daylight at epoch
Visualization orbit readout
Latitude
Unknown
Longitude
Unknown
Altitude
Unknown
Speed
Unknown
Apparent Right ascension
Unknown
Apparent Declination
Unknown
Sunlit
N/A
Visualization observer readout
Local Sidereal Time
02:03:38
Azimuth
Unknown
Elevation
Unknown
Doppler factor
Unknown
Orbital elements
Apogee altitude
854.029 km
Perigee altitude
768.467 km
Semi-major axis
7,189.385 km
Eccentricity
0.00595
Inclination
66.6169°
RAAN
258.8949°
Arg. of periapsis
246.5826°
True anomaly
113.52672°
Mean anomaly
112.9004°
Eccentric anomaly
113.21374°
Mean motion
3.56046 °/min
Orbital period
101.11 mins
BSTAR
0.00078017

Documentation

Showing up to 5 results
|